Burnet, TX

4:08 AM CDT on March 23, 2017 (GMT -0500)
Burnet Municipal-Craddock

Weather History for KBMQ - October, 2014

Change the Weather History Date:

Tuesday, October 28, 2014

  Actual Average Record
Temperature  
Mean Temperature 73 °F -  
Max Temperature 81 °F 72 °F 82 °F (2004)
Min Temperature 66 °F 54 °F 37 °F (2008)
Cooling Degree Days 8    
Growing Degree Days 23 (Base 50)    
Moisture  
Dew Point 62 °F    
Average Humidity 72    
Maximum Humidity 90    
Minimum Humidity 52    
Precipitation  
Precipitation 0.00 in - - ()
Sea Level Pressure  
Sea Level Pressure 30.00 in    
Wind  
Wind Speed 6 mph (SSW)    
Max Wind Speed 9 mph    
Max Gust Speed 17 mph    
Visibility 10 miles    
Events      
Averages and records for this station are not official NWS values.
T = Trace of Precipitation, MM = Missing Value Source: NWS Daily Summary

Daily Weather History Graph

Daily Weather History Graph

Search for Another Location

Airport or City:

Trip Planner

Search our weather history database for the weather conditions in past years. The results will help you decide how hot, cold, wet, or windy it might be!

Date:

Astronomy

Oct. 28, 2014 Rise Set
Actual Time 7:44 AM CDT 6:48 PM CDT
Civil Twilight 7:20 AM CDT 7:12 PM CDT
Nautical Twilight 6:51 AM CDT 7:41 PM CDT
Astronomical Twilight 6:23 AM CDT 8:09 PM CDT
Moon 12:08 PM CDT (10/28) 11:01 PM CDT (10/28)
Length of Visible Light 11h 52m
Length of Day
11h 03m
Waxing Crescent, 24% of the Moon is Illuminated
Oct 28
Waxing Crescent
Oct 30
First Quarter
Nov 6
Full
Nov 14
Last Quarter
Nov 22
New

Hourly Weather History & Observations

Time (CDT) Temp. Heat Index Dew Point Humidity Pressure Visibility Wind Dir Wind Speed Gust Speed Precip Events Conditions
12:53 AM 69.1 °F - 62.1 °F 78% 29.88 in 10.0 mi South 9.2 mph 17.3 mph N/A   Clear
1:53 AM 68.0 °F - 62.1 °F 81% 29.89 in 10.0 mi South 8.1 mph - N/A   Clear
2:53 AM 68.0 °F - 62.1 °F 81% 29.90 in 10.0 mi South 8.1 mph - N/A   Partly Cloudy
3:05 AM 68.0 °F - 62.1 °F 81% 29.94 in 10.0 mi South 9.2 mph - N/A   Mostly Cloudy
3:53 AM 68.0 °F - 63.0 °F 84% 29.90 in 10.0 mi South 5.8 mph - N/A   Overcast
4:29 AM 66.9 °F - 63.0 °F 87% 29.94 in 10.0 mi South 4.6 mph - N/A   Scattered Clouds
4:53 AM 66.9 °F - 63.0 °F 87% 29.90 in 10.0 mi South 5.8 mph - N/A   Clear
5:53 AM 66.0 °F - 63.0 °F 90% 29.92 in 10.0 mi SW 3.5 mph - N/A   Partly Cloudy
6:08 AM 66.0 °F - 63.0 °F 90% 29.97 in 10.0 mi SSW 3.5 mph - N/A   Mostly Cloudy
6:53 AM 66.9 °F - 63.0 °F 87% 29.96 in 10.0 mi WNW 3.5 mph - N/A   Overcast
7:53 AM 68.0 °F - 63.0 °F 84% 29.97 in 10.0 mi Calm Calm - N/A   Overcast
8:50 AM 68.0 °F - 62.6 °F 83% 30.03 in 10.0 mi SSW 3.5 mph - N/A   Scattered Clouds
8:53 AM 68.0 °F - 63.0 °F 84% 29.99 in 10.0 mi Calm Calm - N/A   Partly Cloudy
9:38 AM 69.1 °F - 64.0 °F 84% 30.05 in 10.0 mi South 6.9 mph - N/A   Mostly Cloudy
9:53 AM 69.1 °F - 64.0 °F 84% 30.02 in 10.0 mi South 5.8 mph - N/A   Mostly Cloudy
10:10 AM 70.0 °F - 64.0 °F 81% 30.06 in 8.0 mi South 6.9 mph - N/A   Scattered Clouds
10:53 AM 73.0 °F - 64.0 °F 73% 30.03 in 10.0 mi SSW 4.6 mph - N/A   Clear
11:43 AM 73.9 °F - 64.0 °F 71% 30.08 in 10.0 mi SSW 6.9 mph - N/A   Mostly Cloudy
11:53 AM 73.9 °F - 63.0 °F 68% 30.04 in 10.0 mi Calm Calm - N/A   Mostly Cloudy
12:36 PM 77.0 °F - 63.0 °F 62% 30.07 in 10.0 mi Variable 4.6 mph - N/A   Scattered Clouds
12:44 PM 77.0 °F - 63.0 °F 62% 30.07 in 10.0 mi SW 6.9 mph - N/A   Mostly Cloudy
12:53 PM 75.9 °F - 63.0 °F 64% 30.02 in 10.0 mi Variable 3.5 mph - N/A   Scattered Clouds
1:53 PM 78.1 °F - 62.1 °F 58% 30.00 in 10.0 mi SW 3.5 mph - N/A   Mostly Cloudy
2:53 PM 79.0 °F - 62.1 °F 56% 29.98 in 10.0 mi South 4.6 mph - N/A   Overcast
3:53 PM 79.0 °F - 62.1 °F 56% 29.98 in 10.0 mi SSW 4.6 mph - N/A   Overcast
4:53 PM 80.1 °F 81.2 °F 62.1 °F 54% 29.98 in 10.0 mi Calm Calm - N/A   Overcast
5:53 PM 80.1 °F 81.1 °F 61.0 °F 52% 29.99 in 10.0 mi Calm Calm - N/A   Overcast
6:53 PM 79.0 °F - 62.1 °F 56% 30.01 in 10.0 mi Calm Calm - N/A   Overcast
7:53 PM 77.0 °F - 63.0 °F 62% 30.03 in 10.0 mi Calm Calm - N/A   Overcast
8:53 PM 75.0 °F - 62.1 °F 64% 30.04 in 10.0 mi NNW 3.5 mph - N/A   Scattered Clouds
9:53 PM 73.9 °F - 57.9 °F 57% 30.06 in 10.0 mi NE 8.1 mph - N/A   Overcast
10:53 PM 71.1 °F - 57.9 °F 63% 30.08 in 10.0 mi NNE 8.1 mph - N/A   Partly Cloudy
11:53 PM 69.1 °F - 57.0 °F 65% 30.08 in 10.0 mi North 6.9 mph - N/A   Clear